When you browse on this site, cookies collect data to enhance your experience and personalize the content and advertising you see.
Visit our Privacy Policy to learn more. By continuing to use the site, you agree to this use of cookies and data.
  • în România
  • Lista ţărilor
  • Pe 7 zile
  • Temperatura apei
  • Hartă satelitară
  • Meteo pe hartă
  • Widget-uri
  • user-avatar
    Intrare

    Meteo pe oră la Cikorevo

    Astăzi, 21 Martie, Joi

    Timp Temperatura Precipitaţii Vânt Presiune Umiditate
    00:00 -1°C° 0.4 mm 3 m/s 748 mmHg 84%
    01:00 -2°C° 0.4 mm 4 m/s 747 mmHg 87%
    02:00 -1°C° 0 mm 3 m/s 747 mmHg 92%
    03:00 -1°C° 0.4 mm 3 m/s 746 mmHg 92%
    04:00 0°C° 0.4 mm 3 m/s 746 mmHg 92%
    05:00 0°C° 0.4 mm 3 m/s 746 mmHg 93%
    06:00 0°C° 0 mm 3 m/s 747 mmHg 91%
    07:00 0°C° 0 mm 3 m/s 747 mmHg 90%
    08:00 -1°C° 0 mm 4 m/s 747 mmHg 89%
    09:00 0°C° 0 mm 4 m/s 747 mmHg 88%
    10:00 0°C° 0 mm 4 m/s 748 mmHg 87%
    11:00 +1°C° 0 mm 4 m/s 748 mmHg 86%
    12:00 +3°C° 0 mm 4 m/s 748 mmHg 80%
    13:00 +4°C° 0 mm 4 m/s 748 mmHg 75%
    14:00 +5°C° 0 mm 4 m/s 748 mmHg 69%
    15:00 +5°C° 0 mm 3 m/s 748 mmHg 72%
    16:00 +5°C° 0 mm 3 m/s 748 mmHg 76%
    17:00 +5°C° 0 mm 2 m/s 747 mmHg 79%
    18:00 +4°C° 0 mm 2 m/s 747 mmHg 82%
    19:00 +3°C° 0 mm 2 m/s 747 mmHg 86%
    20:00 +2°C° 0 mm 2 m/s 747 mmHg 89%
    21:00 +2°C° 0 mm 2 m/s 746 mmHg 90%
    22:00 +2°C° 0 mm 2 m/s 746 mmHg 90%
    23:00 +2°C° 0 mm 3 m/s 745 mmHg 90%

    Mâine, 22 Martie, Vineri

    Timp Temperatura Precipitaţii Vânt Presiune Umiditate
    00:00 +2°C° 0.3 mm 3 m/s 745 mmHg 91%
    01:00 +2°C° 0.3 mm 3 m/s 744 mmHg 92%
    02:00 +1°C° 0.3 mm 4 m/s 743 mmHg 93%
    03:00 +3°C° 0.7 mm 4 m/s 742 mmHg 93%
    04:00 +2°C° 0.7 mm 5 m/s 742 mmHg 94%
    05:00 +3°C° 0.7 mm 5 m/s 741 mmHg 94%
    06:00 +2°C° 0.6 mm 6 m/s 741 mmHg 89%
    07:00 +1°C° 0.6 mm 6 m/s 742 mmHg 84%
    08:00 -1°C° 0.6 mm 7 m/s 742 mmHg 79%
    09:00 -1°C° 0.1 mm 7 m/s 743 mmHg 74%
    10:00 -1°C° 0.1 mm 7 m/s 744 mmHg 70%
    11:00 -1°C° 0.1 mm 7 m/s 745 mmHg 65%
    12:00 -1°C° 0.1 mm 7 m/s 745 mmHg 68%
    13:00 -2°C° 0.1 mm 7 m/s 745 mmHg 70%
    14:00 -2°C° 0.1 mm 7 m/s 746 mmHg 73%
    15:00 -2°C° 0.2 mm 7 m/s 746 mmHg 75%
    16:00 -2°C° 0.2 mm 7 m/s 746 mmHg 77%
    17:00 -3°C° 0.2 mm 6 m/s 747 mmHg 79%
    18:00 -3°C° 0.1 mm 7 m/s 747 mmHg 79%
    19:00 -2°C° 0.1 mm 7 m/s 748 mmHg 79%
    20:00 -2°C° 0.1 mm 7 m/s 748 mmHg 79%
    21:00 -2°C° 0.1 mm 6 m/s 749 mmHg 80%
    22:00 -2°C° 0.1 mm 6 m/s 749 mmHg 81%
    23:00 -2°C° 0.1 mm 6 m/s 750 mmHg 82%

    Poimâine, 23 Martie, Sâmbătă

    Timp Temperatura Precipitaţii Vânt Presiune Umiditate
    00:00 -2°C° 0 mm 5 m/s 750 mmHg 83%
    01:00 -2°C° 0 mm 5 m/s 750 mmHg 85%
    02:00 -2°C° 0 mm 4 m/s 751 mmHg 86%
    03:00 -2°C° 0 mm 4 m/s 751 mmHg 88%
    04:00 -2°C° 0 mm 3 m/s 752 mmHg 90%
    05:00 -2°C° 0 mm 3 m/s 752 mmHg 92%
    06:00 -2°C° 0 mm 3 m/s 752 mmHg 90%
    07:00 -2°C° 0 mm 2 m/s 752 mmHg 89%
    08:00 -2°C° 0 mm 2 m/s 753 mmHg 87%
    09:00 -1°C° 0 mm 2 m/s 752 mmHg 83%
    10:00 +2°C° 0 mm 1 m/s 752 mmHg 80%
    11:00 +2°C° 0 mm 0 m/s 752 mmHg 76%
    12:00 +4°C° 0 mm 1 m/s 752 mmHg 74%
    13:00 +5°C° 0 mm 1 m/s 751 mmHg 72%
    14:00 +4°C° 0 mm 2 m/s 751 mmHg 69%
    15:00 +4°C° 0 mm 2 m/s 750 mmHg 71%
    16:00 +4°C° 0 mm 2 m/s 749 mmHg 73%
    17:00 +4°C° 0 mm 2 m/s 749 mmHg 75%
    18:00 +3°C° 0 mm 2 m/s 748 mmHg 77%
    19:00 +1°C° 0 mm 3 m/s 748 mmHg 79%
    20:00 +1°C° 0 mm 3 m/s 747 mmHg 81%
    21:00 +1°C° 0.4 mm 3 m/s 747 mmHg 79%
    22:00 0°C° 0.4 mm 4 m/s 746 mmHg 76%
    23:00 0°C° 0.4 mm 4 m/s 745 mmHg 74%

    24 Martie, Duminică

    Timp Temperatura Precipitaţii Vânt Presiune Umiditate
    00:00 0°C° 1 mm 4 m/s 745 mmHg 78%
    01:00 +1°C° 1 mm 3 m/s 744 mmHg 82%
    02:00 +1°C° 1 mm 3 m/s 744 mmHg 86%
    03:00 +1°C° 0.1 mm 3 m/s 744 mmHg 89%
    04:00 +1°C° 0.1 mm 3 m/s 744 mmHg 93%
    05:00 +2°C° 0.1 mm 2 m/s 743 mmHg 96%
    06:00 +1°C° 0 mm 3 m/s 744 mmHg 94%
    07:00 +1°C° 0 mm 3 m/s 744 mmHg 93%
    08:00 0°C° 0 mm 4 m/s 744 mmHg 91%
    09:00 0°C° 0 mm 4 m/s 744 mmHg 83%
    10:00 +1°C° 0 mm 5 m/s 744 mmHg 75%
    11:00 +2°C° 0 mm 5 m/s 744 mmHg 67%
    12:00 +2°C° 0.1 mm 5 m/s 744 mmHg 63%
    13:00 +2°C° 0.1 mm 6 m/s 744 mmHg 59%
    14:00 +3°C° 0.1 mm 6 m/s 744 mmHg 55%
    15:00 +2°C° 0.1 mm 5 m/s 744 mmHg 58%
    16:00 +1°C° 0.1 mm 4 m/s 744 mmHg 61%
    17:00 0°C° 0.1 mm 4 m/s 744 mmHg 63%
    18:00 0°C° 0 mm 3 m/s 744 mmHg 67%
    19:00 -1°C° 0 mm 3 m/s 744 mmHg 71%
    20:00 -2°C° 0 mm 3 m/s 744 mmHg 75%
    21:00 -2°C° 0 mm 2 m/s 744 mmHg 76%
    22:00 -3°C° 0 mm 2 m/s 744 mmHg 77%
    23:00 -3°C° 0 mm 2 m/s 744 mmHg 79%

    25 Martie, Luni

    Timp Temperatura Precipitaţii Vânt Presiune Umiditate
    00:00 -3°C° 0 mm 2 m/s 744 mmHg 79%
    01:00 -4°C° 0 mm 2 m/s 744 mmHg 80%
    02:00 -4°C° 0 mm 2 m/s 744 mmHg 81%
    03:00 -4°C° 0 mm 2 m/s 744 mmHg 83%
    04:00 -4°C° 0 mm 2 m/s 744 mmHg 85%
    05:00 -4°C° 0 mm 2 m/s 743 mmHg 87%
    06:00 -3°C° 0 mm 2 m/s 743 mmHg 83%
    07:00 -2°C° 0 mm 2 m/s 743 mmHg 79%
    08:00 -1°C° 0 mm 2 m/s 743 mmHg 74%
    09:00 +1°C° 0 mm 2 m/s 743 mmHg 70%
    10:00 +1°C° 0 mm 3 m/s 742 mmHg 66%
    11:00 +3°C° 0 mm 3 m/s 742 mmHg 61%
    12:00 +3°C° 0.1 mm 3 m/s 741 mmHg 61%
    13:00 +3°C° 0.1 mm 3 m/s 741 mmHg 61%
    14:00 +4°C° 0.1 mm 3 m/s 740 mmHg 61%
    15:00 +3°C° 0.1 mm 3 m/s 740 mmHg 63%
    16:00 +4°C° 0.1 mm 2 m/s 739 mmHg 65%
    17:00 +4°C° 0.1 mm 1 m/s 739 mmHg 68%
    18:00 +3°C° 0 mm 1 m/s 739 mmHg 71%
    19:00 +2°C° 0 mm 1 m/s 738 mmHg 75%
    20:00 -1°C° 0 mm 2 m/s 738 mmHg 78%
    21:00 -2°C° 0 mm 2 m/s 738 mmHg 80%
    22:00 -2°C° 0 mm 2 m/s 738 mmHg 81%
    23:00 -2°C° 0 mm 2 m/s 737 mmHg 83%

    26 Martie, Marţi

    Timp Temperatura Precipitaţii Vânt Presiune Umiditate
    00:00 -2°C° 0.1 mm 2 m/s 737 mmHg 84%
    01:00 -2°C° 0.1 mm 2 m/s 737 mmHg 86%
    02:00 -2°C° 0.1 mm 2 m/s 737 mmHg 87%
    03:00 -2°C° 0.4 mm 2 m/s 737 mmHg 88%
    04:00 -2°C° 0.4 mm 3 m/s 738 mmHg 89%
    05:00 -2°C° 0.4 mm 3 m/s 738 mmHg 89%
    06:00 -1°C° 0.3 mm 3 m/s 738 mmHg 88%
    07:00 -2°C° 0.3 mm 4 m/s 738 mmHg 86%
    08:00 -2°C° 0.3 mm 4 m/s 739 mmHg 84%
    09:00 -1°C° 0.1 mm 4 m/s 739 mmHg 83%
    10:00 0°C° 0.1 mm 4 m/s 739 mmHg 81%
    11:00 0°C° 0.1 mm 5 m/s 740 mmHg 79%
    12:00 0°C° 0.1 mm 5 m/s 740 mmHg 79%
    13:00 0°C° 0.1 mm 5 m/s 740 mmHg 78%
    14:00 +1°C° 0.1 mm 5 m/s 741 mmHg 77%
    15:00 0°C° 0.4 mm 5 m/s 741 mmHg 79%
    16:00 0°C° 0.4 mm 4 m/s 742 mmHg 81%
    17:00 -1°C° 0.4 mm 4 m/s 742 mmHg 83%
    18:00 -1°C° 0.1 mm 4 m/s 743 mmHg 83%
    19:00 -1°C° 0.1 mm 4 m/s 744 mmHg 84%
    20:00 -2°C° 0.1 mm 4 m/s 744 mmHg 85%
    21:00 -2°C° 0 mm 4 m/s 745 mmHg 86%
    22:00 -2°C° 0 mm 3 m/s 745 mmHg 87%
    23:00 -2°C° 0 mm 3 m/s 745 mmHg 87%
    Arată mai mult